SBIRS GEO-3 (USA 282)

Last updated on Tue Sep 22 2026 00:03:14 GMT+0000 (Coordinated Universal Time)

1 43162U 18009A 26264.53567678 .00000126 00000+0 00000+0 0 9998 2 43162 2.2641 16.3543 0001950 158.3294 219.1931 1.00273084 31816
UTC large
Height (km)
Speed (km/s)
/
Latitude / Longitude
Inclination (degrees)
Orbital Period (minutes)
Azimuth
Elevation
Range (km)
Doppler Factor

Next 0 passes for location: London (51.5072 / 0.1276)

No passes found over London.
SBIRS GEO-3 (USA 282)